Theta_e
308 306 304 304 304 304 304 305 305 306 307 309 309 310 310 309 309 309 308 306 305 305 307 307 306 304 302 299 299 299 298 295 294 296 296 296 296 296 296 296 296 296 294 292 290 289 288 287 287 287 287 287 286 286 285 285 285 285 285 285 284 284 284 285 285 286 286 286 285 285 284 284 283 283 282 282 282 282 282 282 282 281 281 281 281
308 306 305 304 303 303 304 304 304 304 305 306 306 307 309 308 307 307 305 304 304 304 305 305 303 301 298 295 294 294 294 293 293 294 295 295 296 296 296 295 294 292 291 289 287 287 287 287 286 286 286 286 286 285 285 285 284 284 284 284 284 284 284 284 284 284 285 285 285 284 284 283 283 282 282 281 282 281 281 281 281 281 281 281 281
308 307 305 304 302 302 303 303 303 303 303 303 302 303 307 307 306 305 304 303 303 303 303 303 302 298 295 292 291 291 292 292 292 292 294 295 295 295 294 293 291 289 288 287 287 287 286 286 286 286 286 285 285 285 284 284 284 284 284 284 284 283 283 283 283 283 284 284 284 284 283 283 282 282 281 281 281 281 281 281 281 281 281 281 281
307 306 305 303 302 302 302 302 302 302 301 301 300 301 304 305 304 303 302 301 301 302 302 301 299 297 293 290 290 290 290 291 290 290 291 292 293 292 290 289 288 288 288 287 287 287 286 286 286 286 285 285 284 284 284 284 284 284 284 284 283 283 283 283 282 282 282 283 283 283 283 282 282 282 281 281 281 281 281 281 281 281 281 281 281
306 305 304 303 302 301 301 301 301 301 300 300 300 301 302 302 301 301 300 300 301 302 301 299 298 296 294 291 290 289 290 290 289 289 289 290 290 289 288 288 288 287 287 287 287 287 286 286 286 285 285 284 284 284 285 285 285 285 284 284 283 282 282 282 282 282 281 281 282 282 282 282 282 282 281 281 281 281 281 281 280 280 281 281 281
306 304 303 302 301 301 301 301 301 301 300 299 300 301 300 300 300 300 300 300 300 300 299 298 297 297 296 294 292 290 289 289 288 288 289 288 288 288 288 288 288 287 287 287 287 287 287 286 286 285 284 284 284 285 286 287 287 286 285 284 282 282 281 281 281 281 281 281 281 281 281 282 282 281 281 281 281 280 280 280 280 280 280 281 281
305 304 302 301 301 300 300 300 300 300 300 299 300 300 299 298 299 299 299 298 298 298 298 298 297 296 295 293 291 290 289 288 288 288 288 288 288 288 288 287 287 287 287 287 286 286 286 286 285 284 284 284 286 288 288 288 288 287 286 284 282 281 281 281 281 281 281 280 281 281 281 281 282 281 281 281 281 280 280 280 280 280 281 280 280
304 303 302 301 300 300 299 299 299 299 299 299 299 298 298 297 297 298 298 296 297 299 299 298 297 295 293 291 290 289 288 288 288 288 287 288 287 287 287 287 287 287 287 286 286 286 286 285 284 284 284 286 289 290 290 290 289 288 287 284 283 282 281 281 281 281 281 281 281 281 281 281 282 281 281 281 280 281 281 280 280 281 281 280 280
303 302 301 301 300 300 299 298 298 298 298 297 297 297 297 297 296 297 297 296 296 297 296 295 294 292 290 289 288 288 288 287 287 287 287 287 287 287 287 287 287 287 286 286 285 285 285 285 284 284 286 289 291 292 291 291 290 288 287 285 283 283 282 281 281 281 281 281 281 281 281 282 282 282 282 281 281 281 281 281 281 281 281 280 280
302 301 301 300 300 299 299 297 297 297 297 297 296 297 296 295 295 295 295 295 295 294 292 292 292 290 288 287 287 287 287 287 287 288 288 288 287 287 287 287 287 287 286 286 285 285 284 284 284 286 288 290 292 292 292 291 290 289 288 286 285 284 283 282 282 281 281 281 281 281 281 282 282 282 282 282 282 282 282 281 281 281 280 280 280
301 301 300 300 299 299 298 297 297 297 297 296 296 296 295 294 294 293 293 293 293 291 291 291 290 289 287 286 286 286 286 287 287 287 287 287 287 287 287 287 286 286 286 286 285 285 284 284 285 286 289 291 292 292 292 292 291 290 289 288 287 287 285 284 283 282 281 281 281 281 281 281 282 282 282 282 282 282 281 281 281 281 280 280 280
301 300 300 299 299 298 297 296 296 296 296 296 296 295 294 293 292 292 291 291 291 290 290 289 289 287 286 285 285 286 286 286 287 286 287 287 287 287 287 286 286 286 286 286 285 285 284 284 285 288 290 292 292 292 292 292 291 290 289 288 288 288 287 286 285 284 283 282 281 281 281 281 282 282 282 282 282 282 281 281 281 280 280 280 280
300 299 299 299 298 297 297 296 295 295 295 295 295 294 293 292 291 291 291 291 290 289 288 288 287 285 285 285 285 285 285 285 286 286 286 286 286 286 286 286 286 286 286 285 285 284 284 285 287 289 291 292 292 292 292 292 291 290 289 288 287 287 287 286 286 285 284 283 282 282 283 282 282 283 284 283 282 281 281 281 281 280 280 280 280
299 299 299 298 297 297 296 295 294 294 294 294 293 292 291 291 290 290 290 289 288 287 287 287 286 285 285 284 285 285 285 285 285 285 285 286 286 286 286 286 286 286 286 285 285 284 284 285 288 290 292 292 292 292 292 292 291 289 288 288 287 287 286 286 286 285 284 283 282 283 284 284 283 284 284 283 281 281 281 280 280 280 280 280 280
298 298 298 297 296 296 295 294 294 293 293 293 292 291 291 290 290 289 289 289 288 287 287 286 285 285 284 284 285 285 285 285 284 285 285 285 285 285 285 285 285 285 285 285 285 284 284 286 288 290 291 292 292 292 292 291 290 289 288 288 288 287 287 287 286 285 284 283 283 283 284 283 283 283 282 282 281 280 280 280 279 279 279 279 279
297 297 296 296 295 295 294 294 293 293 292 292 291 290 290 289 289 288 288 287 287 287 286 286 285 285 284 284 284 284 285 284 284 284 284 284 284 284 284 284 284 284 284 284 284 284 284 286 288 290 291 290 291 291 291 290 290 289 288 288 288 287 287 287 285 284 283 283 283 283 283 282 282 282 282 281 281 281 280 279 279 279 279 279 279
296 296 295 295 294 294 294 293 292 292 291 290 290 289 289 288 288 287 287 286 286 286 285 285 285 285 284 284 284 284 284 284 283 283 283 283 283 283 283 283 284 284 284 284 284 284 285 287 289 290 290 289 289 289 290 290 289 289 288 288 287 286 285 285 284 283 283 282 282 281 281 281 282 282 282 282 282 282 281 281 280 279 279 279 278
295 295 295 294 294 293 293 293 292 291 290 290 289 288 288 287 287 287 286 286 285 285 285 284 284 284 284 284 284 284 283 283 283 283 283 282 283 283 283 283 283 283 283 283 284 285 286 288 289 289 288 288 288 288 289 289 288 287 286 285 285 284 284 283 283 282 282 281 281 280 280 280 280 280 280 280 280 281 281 281 281 280 280 279 279
295 294 294 294 293 293 293 292 292 291 290 289 289 288 287 287 287 286 286 286 285 285 284 284 284 284 284 284 284 283 283 283 282 282 282 282 282 282 282 282 282 282 283 283 284 285 286 287 288 287 287 287 288 289 289 288 286 285 284 284 283 283 283 282 282 282 281 281 280 280 280 280 280 279 279 279 279 279 280 280 280 281 281 280 279
294 293 293 293 292 292 292 292 291 291 290 289 288 288 287 287 286 286 285 285 285 285 284 284 284 283 283 283 283 283 283 283 282 282 283 283 283 282 282 282 282 283 283 284 284 285 286 287 287 287 287 288 288 288 287 286 285 284 283 283 282 282 282 282 281 281 281 281 281 281 281 280 280 280 280 280 279 279 279 279 279 280 280 280 280
293 292 292 292 292 292 291 291 291 290 290 289 288 287 287 287 286 286 285 285 285 284 284 283 283 282 282 282 282 282 282 282 282 282 283 283 283 283 282 282 283 283 284 284 285 285 286 287 287 287 287 287 286 286 285 284 284 284 283 283 282 282 282 282 282 282 282 282 282 282 281 281 280 280 279 279 279 279 279 279 279 279 279 279 279
292 292 291 291 291 291 290 290 290 289 289 288 287 286 286 286 285 285 284 284 284 283 283 282 282 282 281 281 281 281 281 281 281 281 282 282 282 282 282 283 283 283 284 285 285 286 286 287 287 287 286 285 284 284 283 283 283 283 283 283 282 283 282 282 282 282 282 282 282 282 282 281 280 280 279 279 279 279 279 279 278 278 278 278 278
291 291 291 291 290 290 289 289 289 289 288 288 287 286 285 285 284 284 284 283 283 282 282 281 281 281 281 281 281 281 281 281 281 281 281 281 281 282 282 282 283 283 283 284 285 286 286 286 286 285 284 283 282 282 282 282 282 282 282 282 282 283 283 282 282 282 282 282 282 282 282 282 281 280 280 280 279 279 279 278 278 278 278 278 277
291 290 290 290 289 288 288 288 288 288 287 287 286 285 284 284 284 283 283 283 282 282 281 281 281 281 281 281 282 282 282 282 282 281 281 281 282 283 284 283 283 283 283 284 285 285 285 285 284 283 283 282 282 282 282 282 282 282 282 282 282 282 281 281 281 281 281 281 281 281 281 281 281 281 280 280 279 279 279 279 278 278 277 277 277
290 289 289 288 288 287 287 287 287 287 287 286 286 285 284 283 283 283 283 283 282 282 282 282 282 282 282 282 282 283 283 283 283 283 282 282 282 283 283 283 283 284 284 285 285 285 284 283 283 282 282 281 281 280 280 280 280 280 280 280 280 280 279 279 279 280 280 280 280 280 280 280 280 280 280 280 279 279 278 278 277 277 276 276 276
289 288 287 287 287 287 287 286 286 286 286 286 285 285 284 284 283 283 283 283 283 283 283 282 283 283 282 282 282 282 283 283 283 283 282 282 282 282 282 283 284 284 284 284 284 283 283 282 281 281 280 280 279 279 279 279 278 278 278 278 278 278 278 278 279 279 279 279 279 279 279 279 279 279 278 278 278 278 277 277 276 275 275 275 274
288 287 287 286 286 286 286 285 285 285 285 285 285 285 284 284 284 284 284 284 284 284 283 283 283 283 283 283 283 282 282 282 282 282 283 283 283 283 283 283 283 282 282 281 281 281 280 280 280 279 279 279 279 279 279 278 278 278 278 278 278 278 278 278 278 278 278 278 278 278 278 278 277 277 277 277 277 277 277 276 275 274 274 273 273
287 286 286 286 286 286 286 285 285 285 285 285 285 284 285 284 284 284 285 285 285 284 284 284 284 284 284 284 283 283 282 282 283 284 284 284 283 283 282 282 281 281 280 280 280 279 280 279 279 279 279 279 279 279 278 278 278 278 278 278 278 278 277 277 277 277 277 277 277 277 277 277 277 277 277 276 276 276 275 275 274 273 273 272 271
286 286 286 285 285 285 285 285 285 285 285 285 285 285 285 285 285 284 284 285 285 285 284 284 284 284 284 284 284 283 282 282 282 283 283 282 282 282 281 281 281 281 280 280 280 280 280 279 279 279 279 279 279 279 279 279 279 278 278 278 278 278 278 278 278 277 277 277 277 277 277 276 276 276 276 276 275 275 274 274 273 272 271 271 270
286 285 285 285 285 285 285 285 285 285 285 285 284 284 284 284 284 284 284 284 285 285 285 285 284 284 284 283 283 283 282 282 282 282 282 282 281 281 281 281 281 280 280 280 280 280 280 280 279 279 279 279 279 279 279 279 278 278 278 278 278 278 278 278 277 277 277 277 277 276 276 276 275 275 275 275 275 274 273 273 272 271 270 270 269
286 285 285 285 285 285 285 285 285 284 284 284 283 283 283 283 283 284 284 284 284 284 284 284 284 283 283 282 282 282 282 282 282 281 281 281 281 280 280 280 280 280 280 280 280 280 280 280 280 280 280 280 279 279 279 278 278 278 278 277 277 277 277 277 277 276 276 276 275 275 275 275 275 275 275 274 274 273 272 272 271 270 270 269 269
286 285 285 285 285 285 285 285 284 284 283 283 283 283 282 281 281 282 282 282 282 282 282 282 282 282 282 282 281 281 281 281 281 280 280 280 280 280 280 280 280 280 280 280 280 280 280 280 280 279 279 279 278 278 277 277 277 276 276 276 275 275 275 275 275 274 274 274 274 274 274 274 274 274 274 273 273 272 271 271 271 270 269 269 268
287 286 285 285 285 285 285 284 284 284 283 283 283 283 282 281 280 279 280 280 280 280 280 280 280 281 280 281 281 280 280 280 280 279 279 279 279 279 280 280 280 280 280 280 280 280 280 279 279 278 278 277 276 276 276 275 275 274 274 273 273 273 273 273 272 272 272 272 273 272 272 272 272 272 272 272 271 271 271 270 270 270 269 268 268
288 287 287 286 285 285 285 284 284 284 284 283 283 282 282 281 280 279 279 279 279 279 278 278 279 279 279 279 278 278 278 278 278 278 278 278 278 278 278 278 278 278 278 278 278 278 278 277 277 276 276 275 274 274 274 273 272 272 272 272 271 271 271 270 270 270 270 270 271 270 271 271 271 270 270 270 270 270 270 269 269 269 269 268 268
287 287 287 286 286 285 285 284 284 284 283 283 283 282 282 281 279 279 278 278 277 277 276 276 276 276 277 277 277 277 277 277 277 277 277 277 277 277 277 277 277 278 277 277 276 276 276 276 275 274 274 273 273 272 272 271 271 270 270 270 269 269 269 268 268 268 268 268 268 268 268 268 268 268 268 268 268 268 268 268 268 268 268 267 267
287 286 286 286 286 285 285 285 285 284 284 283 282 282 281 280 279 279 278 278 277 276 275 274 275 275 275 275 275 275 276 277 277 277 277 277 276 276 276 276 276 276 276 275 274 274 274 274 273 273 272 272 271 271 270 270 269 269 269 268 268 267 267 266 266 266 266 265 265 266 266 266 266 266 266 266 266 266 266 266 266 266 266 266 266
288 287 286 286 286 286 285 285 284 284 284 283 282 282 281 280 279 279 278 277 276 275 274 274 274 274 274 274 274 274 275 276 276 276 276 276 276 275 275 275 275 275 274 274 273 273 273 272 272 271 271 270 270 270 269 269 268 268 267 266 266 266 265 265 265 264 264 264 264 264 264 264 264 264 265 265 265 265 265 265 265 265 265 264 264
287 288 287 286 286 285 285 284 283 283 283 282 282 281 281 280 279 278 277 276 276 275 274 274 273 273 273 273 273 273 274 274 275 275 275 275 275 275 275 275 274 273 273 273 273 273 272 271 271 270 270 269 269 268 268 267 267 266 266 265 265 265 265 264 264 264 264 264 264 263 263 263 263 263 263 263 263 263 263 263 263 263 263 263 263
286 286 286 286 285 285 285 284 283 282 282 281 281 281 281 280 279 278 277 276 276 275 274 273 272 272 272 273 273 273 273 273 273 274 274 274 274 274 273 273 273 272 272 272 271 271 270 270 269 269 269 268 267 267 266 266 265 265 265 265 265 265 264 264 263 263 263 263 263 263 263 263 262 262 262 262 262 262 262 262 262 262 262 262 262
285 285 285 285 284 284 284 284 283 282 281 281 281 280 280 279 279 278 277 276 275 274 274 273 272 272 273 273 272 272 272 272 272 273 273 273 272 272 271 271 271 271 270 270 269 269 269 268 268 268 267 266 266 266 265 265 265 265 265 264 264 264 264 264 263 263 263 263 263 263 262 262 262 262 262 262 262 262 261 261 261 261 261 261 261
285 284 283 284 284 283 283 282 282 281 281 281 280 280 279 279 278 278 277 276 275 274 273 272 272 272 273 272 272 272 272 272 272 272 271 271 270 270 270 270 269 269 269 268 268 268 268 267 267 267 266 266 265 265 265 265 265 265 264 264 264 264 264 264 263 263 263 263 262 262 262 262 261 261 261 261 261 261 261 261 260 260 260 260 260
285 284 282 282 282 282 281 280 280 280 280 280 279 279 278 278 277 277 276 275 274 273 272 272 272 272 272 271 271 272 272 272 271 270 270 270 269 269 269 269 268 268 268 267 267 267 267 266 266 266 265 265 265 265 265 265 265 264 264 264 264 264 264 263 263 263 262 262 262 262 262 262 261 261 261 260 260 260 260 260 260 260 260 260 260
283 282 281 280 280 280 280 279 279 278 278 278 278 277 277 277 276 275 275 274 273 273 272 272 272 272 271 270 271 271 271 270 270 269 269 269 268 268 268 268 267 267 267 267 267 266 266 266 265 265 265 265 265 265 265 265 264 264 264 264 263 263 263 263 263 262 262 262 262 262 262 262 261 261 261 260 260 260 260 259 259 259 259 259 259
281 280 280 279 278 278 278 278 277 277 277 276 276 276 275 275 274 274 273 273 272 272 272 272 272 272 272 271 270 270 269 268 268 268 268 268 267 267 267 267 267 267 266 266 266 266 265 265 265 265 265 265 264 264 264 264 264 264 263 263 263 263 263 262 262 262 261 261 261 261 261 261 261 261 261 261 260 260 259 259 259 259 259 259 259
280 279 278 277 277 276 276 276 276 276 275 275 274 274 273 273 273 273 272 272 272 271 271 271 271 270 270 269 268 268 268 267 267 267 267 267 267 267 267 267 266 266 266 266 265 265 265 265 265 265 265 265 264 264 264 264 264 264 263 263 263 263 263 262 262 261 261 261 261 261 261 261 261 261 260 260 260 259 259 259 259 259 258 258 258
278 278 277 276 276 275 274 274 274 274 274 273 273 272 272 272 272 272 272 272 271 271 270 270 269 268 268 267 267 267 267 267 267 267 266 266 266 266 266 266 266 266 265 265 265 265 265 265 265 265 265 265 264 264 264 263 263 263 263 263 263 263 262 262 261 261 261 261 261 261 261 261 261 260 260 260 259 259 259 259 259 258 258 258 258
277 277 276 275 275 274 273 273 273 273 272 272 272 272 271 271 271 271 270 270 270 269 269 268 268 267 267 267 266 266 266 266 266 266 266 266 266 266 266 266 265 265 265 265 265 265 265 265 265 265 264 264 264 264 263 263 263 263 263 262 262 262 262 262 262 262 262 261 261 261 261 260 260 260 260 259 259 259 259 259 258 258 258 257 257
276 275 274 274 274 273 272 272 272 272 272 271 271 271 270 270 269 269 269 268 268 268 267 267 267 266 266 266 266 266 266 266 266 266 266 266 265 265 265 265 265 265 265 265 265 264 264 264 264 264 264 264 264 264 264 263 263 263 262 262 262 262 262 262 262 262 262 262 262 261 261 261 261 260 260 259 259 259 259 258 258 258 257 257 257
274 274 273 273 273 272 272 271 271 271 270 270 270 269 269 269 268 268 267 267 267 267 266 266 266 266 266 266 266 265 265 265 265 265 265 265 265 265 265 265 264 264 264 264 264 264 264 264 264 264 264 264 264 263 263 263 263 263 262 262 263 263 262 262 262 263 262 262 262 262 261 261 261 260 260 259 259 259 258 258 258 258 258 257 257
273 273 273 272 272 271 271 270 270 270 269 269 269 268 268 267 267 267 266 266 266 266 266 265 265 265 265 265 265 265 265 265 265 265 265 265 265 265 264 264 264 264 264 264 264 264 264 264 264 263 263 263 263 263 263 263 263 263 263 263 263 263 263 263 263 263 262 262 262 261 261 261 261 260 260 259 259 258 258 258 258 258 258 257 257
272 272 271 271 271 270 270 269 269 268 268 268 267 267 267 266 266 266 266 265 265 265 265 265 265 265 265 265 265 265 265 265 265 265 265 265 265 264 264 264 264 264 264 264 264 264 264 263 263 263 263 263 263 263 263 263 263 263 262 262 263 263 263 263 263 263 262 262 261 261 261 260 260 260 259 259 258 258 258 258 258 258 258 258 257
Wind_Speed
21 20 20 22 22 24 28 30 31 32 33 33 32 31 30 29 28 29 28 28 30 31 31 30 30 32 32 31 30 29 29 29 29 27 26 26 26 26 26 25 25 24 23 21 21 21 20 19 18 16 14 13 12 12 11 11 9 9 8 7 6 7 7 6 7 7 5 5 8 12 14 14 16 17 18 20 21 21 21 21 22 22 23 23 22
21 21 20 22 23 25 29 31 31 31 31 31 31 31 31 30 29 29 28 28 29 30 30 30 30 31 31 30 30 29 29 29 29 27 26 27 27 27 26 25 25 24 23 23 23 22 21 19 18 15 14 13 12 12 11 10 8 7 7 7 6 7 8 8 8 8 9 8 9 11 14 15 16 17 18 19 20 21 22 23 24 25 25 24 23
20 20 20 21 22 24 28 31 30 30 29 28 28 29 31 31 30 30 29 28 29 29 29 29 29 30 30 30 29 29 29 29 29 28 28 28 28 27 26 26 26 25 25 25 24 22 21 19 17 15 13 13 13 12 10 8 6 6 6 7 8 9 10 10 9 9 10 10 10 11 13 15 17 17 17 19 21 22 24 25 25 26 26 25 25
19 20 21 22 22 23 27 30 30 29 28 28 28 29 30 30 30 30 30 29 29 29 28 28 29 30 30 29 27 28 29 30 30 29 29 29 28 27 27 26 26 26 25 25 23 22 20 18 16 14 14 13 13 11 8 5 4 5 7 9 11 11 12 12 12 11 11 12 14 14 14 16 18 18 18 21 23 24 25 26 25 25 26 26 26
20 21 22 23 23 24 27 29 30 29 28 28 28 29 29 30 29 30 30 29 29 28 28 28 29 31 31 30 29 28 30 31 31 30 30 29 28 28 28 27 27 26 25 24 23 21 19 17 15 14 14 14 12 9 5 4 5 6 8 10 12 13 13 13 14 13 13 15 17 18 17 18 20 21 21 22 23 24 24 24 24 24 26 26 27
21 21 23 23 24 26 28 29 30 30 29 29 30 30 29 29 29 29 30 30 29 28 28 28 30 31 32 32 32 31 31 31 32 31 30 30 30 29 29 28 27 26 25 23 22 20 17 15 14 15 14 13 10 8 7 7 8 8 9 11 13 13 13 14 14 14 15 16 19 20 20 20 21 22 22 21 22 22 22 22 22 22 24 26 28
22 22 23 23 24 27 28 29 30 31 31 30 30 30 30 29 29 29 30 30 29 29 28 29 30 31 31 32 32 32 32 33 32 32 32 31 31 30 29 28 27 26 24 22 20 18 16 16 16 15 14 12 10 10 11 11 11 11 11 12 13 14 15 14 14 14 15 17 18 20 21 22 20 21 22 20 20 22 23 22 23 23 23 23 25
22 22 22 23 25 25 26 26 28 31 31 30 30 31 31 30 29 28 29 29 30 30 29 29 30 31 31 31 31 32 33 34 34 34 33 32 31 30 30 29 28 26 23 21 20 18 17 17 16 16 14 13 13 13 13 13 13 14 14 14 15 15 15 14 13 13 15 17 19 20 21 21 20 20 22 19 20 24 24 21 23 25 22 21 23
23 23 23 25 25 24 24 25 26 28 29 29 29 30 31 31 29 29 29 30 30 29 29 29 29 30 30 30 30 32 34 35 35 34 33 32 32 31 30 30 28 26 25 23 21 21 20 19 18 16 15 15 14 13 14 14 15 16 16 16 16 15 15 15 14 14 15 17 20 21 21 21 20 20 22 21 22 25 24 20 23 25 23 23 27
24 24 24 25 24 23 24 25 26 28 29 29 29 29 29 30 29 29 29 29 28 28 28 28 28 28 29 30 30 31 33 34 35 34 33 33 33 32 31 30 28 27 26 25 24 22 21 20 19 18 17 16 14 13 14 14 15 17 18 18 18 18 18 18 17 17 17 20 23 22 20 21 22 22 24 26 25 25 24 21 23 25 23 23 27
24 25 24 24 23 23 23 25 26 28 30 30 29 28 28 28 28 29 28 27 27 26 26 27 28 28 29 30 30 31 33 34 35 35 35 34 33 32 31 30 28 27 26 25 25 23 22 21 20 19 18 16 14 14 14 15 16 17 19 20 20 21 21 21 21 20 20 23 26 23 20 23 27 26 26 28 28 25 25 24 24 25 23 20 23
24 24 23 22 22 23 23 24 25 27 29 30 29 28 27 27 28 28 27 26 26 25 25 26 27 28 28 28 29 31 32 33 34 34 34 33 32 31 31 29 28 27 25 24 24 23 23 22 21 19 17 15 14 15 16 18 19 19 20 21 22 24 24 24 25 24 25 26 27 25 24 26 30 31 28 28 28 26 25 25 25 25 24 23 24
23 23 22 21 22 23 22 22 24 26 28 29 28 27 27 27 27 26 25 25 24 24 25 25 25 26 27 27 28 29 30 31 32 32 33 33 32 30 30 29 28 27 26 24 23 23 23 23 21 18 15 14 15 16 18 20 21 22 23 24 26 28 27 27 27 28 29 29 28 31 32 29 31 36 34 28 28 27 26 27 27 26 25 25 27
22 22 21 21 22 22 22 22 22 24 25 27 27 27 26 26 25 25 24 24 24 24 25 25 25 26 27 28 28 28 29 30 31 32 32 32 32 30 29 28 28 27 25 24 23 23 23 22 19 16 14 14 15 16 18 21 23 25 27 29 31 33 32 32 32 32 32 31 32 37 39 36 35 40 39 31 29 29 28 29 29 27 27 28 29
21 21 21 21 21 21 22 22 22 22 24 25 26 27 26 25 24 24 24 24 24 25 25 25 26 26 26 27 27 28 29 30 31 31 32 31 30 29 28 28 26 25 23 22 22 22 22 20 17 16 16 17 16 17 19 21 24 27 29 32 34 35 35 36 35 33 32 32 35 39 42 41 39 40 39 33 31 30 29 30 31 29 28 29 31
19 19 20 20 21 21 22 22 22 22 24 25 26 26 25 24 24 24 23 23 23 24 24 24 25 26 26 27 26 27 28 29 29 30 29 29 28 27 26 25 24 23 22 22 21 21 19 17 16 18 20 20 19 19 20 22 25 28 31 33 35 35 37 37 35 33 32 33 36 38 40 41 38 37 35 32 30 30 28 28 30 27 25 27 29
18 19 19 20 20 21 21 22 22 22 23 24 25 25 25 24 23 23 23 22 22 22 22 23 23 24 25 26 26 26 27 28 28 28 27 26 26 26 25 24 24 24 23 21 20 18 16 16 17 20 21 22 22 22 23 25 27 29 31 33 34 35 36 35 32 32 33 34 36 37 37 36 34 33 33 31 30 31 29 28 28 24 22 22 23
17 17 18 18 19 20 21 22 22 22 23 24 24 24 23 23 22 22 21 21 21 21 21 21 21 21 23 24 25 25 26 26 25 25 25 24 23 23 23 23 23 22 21 19 18 16 16 17 19 20 22 23 24 25 25 25 27 28 28 30 33 34 33 30 30 31 32 32 33 34 34 35 34 33 34 33 32 31 30 32 32 28 24 22 23
15 16 16 16 17 18 20 21 22 22 22 23 23 23 22 22 21 20 20 20 20 20 20 19 19 19 20 22 22 23 24 24 23 23 22 22 21 21 21 21 21 20 19 18 17 16 17 18 20 22 23 24 25 25 24 23 24 25 26 27 31 32 30 28 29 30 30 29 30 31 32 32 32 31 32 33 31 28 28 31 32 30 28 28 27
13 14 15 15 16 17 18 20 21 22 22 22 22 21 21 21 20 19 19 19 19 19 18 18 18 18 18 19 19 20 22 22 22 22 22 21 21 20 19 20 20 19 18 17 16 17 18 19 20 21 22 23 22 22 21 20 21 23 24 25 29 30 29 27 27 27 28 30 30 30 31 31 30 30 31 32 31 28 27 27 28 29 30 30 29
14 14 15 16 16 17 18 19 20 20 20 21 20 20 20 20 20 19 19 19 18 17 17 17 17 16 16 17 17 18 19 20 20 20 21 21 20 19 19 19 19 18 17 15 16 16 16 15 16 17 18 18 18 17 17 17 18 20 22 23 25 25 25 26 27 27 27 29 30 30 31 29 28 28 29 30 30 28 27 27 27 28 29 29 29
15 15 15 16 16 17 18 19 20 20 19 19 20 19 18 18 19 19 19 18 18 17 17 16 16 15 15 15 16 17 17 17 18 19 19 19 19 19 19 19 18 17 16 15 15 15 14 13 14 14 15 15 14 13 14 14 15 18 20 21 22 23 23 26 28 26 26 27 26 27 29 27 26 27 28 29 30 29 28 27 27 27 28 29 29
15 16 16 16 17 18 18 19 19 19 19 19 19 19 18 19 19 19 18 18 18 18 17 16 15 15 15 15 16 16 16 15 15 17 18 18 19 18 18 18 18 17 17 16 15 14 13 12 12 11 11 10 10 10 11 12 14 15 16 17 18 19 20 22 24 24 24 24 24 25 26 26 25 26 27 28 28 27 26 26 26 25 26 28 29
16 16 17 17 18 19 18 18 18 18 18 19 19 19 19 19 19 18 18 18 19 18 17 16 15 14 14 15 16 16 16 15 15 16 17 18 18 16 15 16 16 16 15 15 14 13 11 9 8 8 9 9 9 10 11 12 12 13 15 16 18 19 21 21 22 21 21 22 22 23 24 24 24 25 26 26 27 27 27 27 27 26 26 27 28
18 19 19 19 20 19 18 18 18 17 18 18 18 19 20 20 18 18 18 18 18 18 16 16 14 13 12 14 15 16 16 16 16 16 17 17 17 15 13 13 13 13 12 12 11 10 9 8 8 9 10 12 13 13 13 13 14 15 16 17 18 18 18 18 18 18 19 20 21 21 22 22 23 25 26 26 27 26 25 24 24 23 23 24 25
22 22 21 21 21 20 19 19 18 17 18 18 18 19 20 19 18 18 17 15 15 15 14 14 12 11 10 11 12 14 15 15 15 15 15 15 16 16 16 15 14 14 13 13 12 12 11 11 11 11 12 14 14 14 13 11 11 11 11 10 9 9 10 12 13 15 16 18 19 21 22 23 24 26 27 26 26 25 23 22 23 22 22 22 23
25 24 23 22 22 21 20 21 20 18 17 17 17 18 18 18 18 17 15 13 13 12 12 12 11 10 9 9 9 11 13 13 14 15 15 15 16 16 16 16 15 14 14 13 13 12 12 12 12 11 11 11 9 8 7 7 6 6 6 6 7 9 11 12 14 15 16 17 19 20 21 22 23 24 24 24 24 24 24 24 24 23 22 21 22
26 25 23 23 22 21 21 22 20 18 17 15 15 16 15 15 16 15 13 13 13 12 12 12 12 11 11 11 11 11 11 12 14 14 15 16 15 15 14 13 12 12 11 10 9 8 8 8 7 6 6 5 5 4 5 5 6 7 7 8 10 11 12 12 13 13 15 16 17 18 19 19 20 21 21 22 23 24 24 24 23 22 21 19 19
26 24 23 23 22 21 22 21 20 19 18 17 16 15 13 13 14 14 13 12 13 12 12 12 12 11 11 11 12 12 11 12 13 13 13 13 13 12 11 11 10 9 8 7 5 5 4 3 3 3 3 4 5 6 6 7 7 7 8 9 10 10 10 11 12 13 14 15 16 17 17 18 19 20 20 21 22 22 22 21 21 20 19 17 18
24 23 22 22 22 22 23 21 20 21 21 20 19 17 14 12 13 14 13 11 11 10 10 11 11 12 12 12 11 12 12 12 12 11 11 11 11 10 10 9 8 7 6 4 4 4 4 4 5 5 6 6 6 6 6 6 7 7 7 8 8 9 10 11 12 13 13 13 14 16 17 17 18 19 18 19 19 19 19 20 20 19 17 17 18
25 23 23 23 23 23 23 23 22 22 22 22 22 20 17 14 11 9 10 10 9 9 9 10 11 13 14 13 12 11 11 11 11 11 11 11 10 9 9 8 7 6 5 5 5 6 7 7 7 7 6 5 4 4 4 5 6 6 6 7 7 9 10 10 10 11 12 13 15 16 17 17 17 18 17 17 18 19 19 19 19 18 17 16 17
28 26 25 24 23 23 24 24 23 23 23 22 22 22 21 19 16 12 10 9 9 9 9 10 11 11 12 12 12 11 10 10 10 10 10 9 9 8 8 7 6 6 6 6 6 7 7 6 5 5 4 3 4 4 5 6 7 7 8 9 9 9 8 9 11 13 14 14 15 15 15 16 16 17 17 17 18 19 19 18 17 16 16 15 15
28 27 27 26 24 24 25 25 25 25 24 23 22 22 22 21 21 20 17 14 13 12 10 9 10 10 11 10 10 11 11 11 10 10 9 9 9 9 8 7 6 6 6 7 6 6 5 4 5 5 5 5 6 8 8 9 9 10 10 10 10 10 10 11 13 14 13 12 12 13 14 15 16 16 17 16 16 17 17 16 15 15 14 14 15
27 28 28 28 27 26 26 26 26 25 24 23 22 22 21 22 24 25 23 20 18 16 14 12 11 11 11 11 10 11 11 11 10 10 9 9 9 9 8 7 6 5 6 6 6 6 4 4 5 7 7 6 6 7 8 8 8 8 8 9 10 11 13 14 14 13 11 11 11 12 12 14 15 15 16 15 15 15 15 14 14 14 13 13 14
26 26 27 27 27 27 26 26 26 25 24 23 22 22 22 23 24 23 21 19 19 17 15 14 13 11 11 11 11 11 11 11 10 9 8 7 7 7 6 6 7 6 6 6 6 6 5 5 4 5 5 5 5 5 6 6 7 7 8 10 11 12 13 14 13 12 11 12 12 12 12 13 14 14 14 14 14 14 14 13 13 13 13 13 14
26 26 26 25 25 25 25 25 25 26 26 24 23 22 22 22 22 19 17 18 19 18 17 16 14 13 12 12 11 10 10 9 9 8 6 6 6 6 7 7 7 8 7 7 6 6 6 5 5 6 6 6 6 6 7 7 8 9 10 11 12 12 12 12 12 11 12 13 12 11 11 12 12 12 13 13 13 13 13 13 13 13 12 13 13
27 27 26 25 24 24 25 24 24 25 25 25 24 23 22 21 19 18 17 18 19 19 19 18 17 15 14 12 11 9 8 8 7 6 6 6 6 7 8 8 8 8 8 8 7 6 6 6 7 8 8 8 8 8 9 9 10 11 11 11 12 12 11 11 10 11 12 13 12 11 11 12 12 12 11 12 12 11 12 12 12 12 12 12 12
26 27 26 25 25 25 25 24 24 24 24 24 23 23 22 21 19 19 19 19 19 19 19 18 16 15 14 13 11 10 8 7 6 6 6 6 6 6 7 8 8 8 8 8 8 7 7 8 9 9 9 9 9 10 10 10 10 10 10 10 10 10 10 10 10 11 12 12 12 11 12 12 12 11 10 10 11 11 11 11 11 11 12 12 12
25 25 25 25 25 25 25 25 24 24 23 23 23 23 23 22 21 20 20 20 19 19 19 17 15 14 15 15 13 11 8 7 6 6 5 5 5 5 6 6 7 8 8 8 8 8 8 9 10 10 10 10 10 9 9 9 9 9 9 9 9 9 9 10 10 11 12 12 13 12 13 13 12 12 11 10 10 10 10 10 11 11 11 12 12
26 25 25 24 24 24 24 24 24 24 24 24 24 23 23 23 22 21 22 21 20 19 18 17 16 15 16 15 13 11 10 8 7 6 5 5 5 6 6 6 7 7 8 8 8 8 8 9 9 9 9 9 9 8 8 9 9 9 9 9 9 10 10 10 11 11 12 13 14 14 13 13 13 13 13 11 10 10 10 11 11 11 11 12 12
27 26 25 24 24 24 24 24 24 24 24 24 24 24 23 22 22 22 22 21 20 19 18 18 17 16 15 13 12 11 10 9 8 7 6 6 6 6 6 6 7 7 7 8 8 8 8 8 9 9 8 8 8 8 8 8 9 9 9 9 10 10 11 11 11 12 13 14 15 14 14 14 13 13 14 13 11 11 11 11 11 11 12 12 12
28 28 26 25 25 25 25 24 24 23 23 23 23 22 22 22 21 21 21 21 21 20 19 18 16 15 13 11 11 11 10 9 8 7 7 7 7 7 7 7 7 7 7 7 7 8 8 8 8 9 9 9 8 8 9 9 9 10 11 11 11 11 11 12 12 13 14 15 15 15 14 14 14 14 14 13 13 13 12 12 12 12 13 13 12
28 28 28 26 26 25 25 25 24 23 23 22 22 21 21 21 21 21 21 21 21 20 19 17 15 14 12 10 10 10 9 8 8 8 7 7 7 7 7 7 7 7 7 8 8 8 8 9 9 9 9 9 9 9 10 10 10 11 12 12 12 12 12 13 13 14 15 16 16 16 15 15 15 15 14 14 14 13 13 13 13 13 13 12 12
27 28 27 26 25 25 24 24 24 23 22 21 21 21 20 20 20 20 20 19 18 17 16 15 14 13 12 10 9 8 8 7 7 7 7 8 8 8 8 8 8 8 8 9 9 9 9 10 10 10 10 10 10 11 11 11 12 13 13 13 14 13 14 14 14 14 15 16 17 17 16 16 16 16 15 14 14 14 14 14 13 12 12 13 12
26 27 26 26 25 24 23 23 23 22 22 21 21 20 19 19 19 18 18 17 16 15 13 13 12 12 11 10 9 9 8 8 8 8 8 8 8 8 8 9 9 9 9 10 10 10 11 11 11 11 11 11 11 12 12 13 13 14 15 15 15 15 15 15 15 15 16 17 17 17 17 17 17 17 16 15 14 14 14 14 13 13 14 14 14
25 26 26 25 25 24 23 23 22 22 21 21 20 20 18 17 17 16 16 15 14 13 12 12 12 12 11 11 10 9 9 9 8 8 8 8 8 9 9 10 10 11 11 11 12 12 13 13 13 13 13 13 13 14 14 15 15 16 17 17 17 16 16 15 16 16 17 17 18 18 18 18 18 18 17 16 15 15 14 14 14 14 15 14 14
24 24 25 25 24 24 23 23 22 21 21 20 19 19 17 16 15 15 14 13 12 12 12 11 11 11 11 10 10 9 9 9 9 9 9 9 9 9 10 11 12 13 13 13 14 14 14 15 15 15 15 15 16 16 16 16 17 17 18 18 18 18 17 17 17 18 18 18 18 19 19 19 19 18 18 17 16 16 15 15 14 14 14 13 13
23 23 23 23 24 23 23 22 21 20 19 18 18 17 16 15 14 13 12 12 11 11 11 11 11 11 10 10 9 9 9 9 9 9 9 10 10 10 11 12 13 14 15 15 16 16 16 16 17 17 18 18 18 18 18 18 18 18 18 18 18 18 18 18 19 19 19 19 19 20 20 20 20 19 19 18 17 16 16 15 14 14 13 13 13
22 22 22 22 23 22 22 21 20 19 18 17 16 14 14 13 12 12 11 11 11 10 10 10 10 10 9 9 9 9 9 10 10 10 10 11 11 12 12 13 14 15 16 17 17 17 18 18 19 20 20 21 21 21 20 20 20 19 19 18 18 18 18 19 20 20 20 20 20 20 21 21 20 20 19 19 18 17 15 14 14 13 12 13 13
21 21 21 21 21 20 19 19 17 16 16 15 13 13 12 11 11 11 10 10 9 9 9 9 9 9 9 9 9 10 10 11 11 11 12 12 13 13 14 15 16 17 18 19 19 20 20 21 21 22 22 22 23 23 22 22 21 20 19 19 18 18 19 20 20 20 20 20 20 21 21 21 21 20 19 18 17 16 15 14 13 12 12 12 12
19 19 19 18 17 17 16 15 14 14 13 12 12 11 11 10 10 9 9 8 8 8 8 8 9 9 9 10 10 10 11 11 12 13 13 14 14 15 16 17 18 19 20 21 22 22 22 23 23 23 23 24 24 24 24 23 22 21 20 20 19 20 20 20 20 20 20 20 21 21 21 21 20 19 18 17 17 16 16 14 13 13 12 12 12
Wind_Direction
204 204 204 207 212 215 217 220 223 226 229 231 230 231 234 234 233 232 232 233 232 229 227 227 224 219 215 215 216 215 214 214 213 210 205 204 205 206 207 206 206 206 205 200 196 194 192 190 188 186 186 189 190 196 201 201 204 210 215 221 231 245 247 247 269 281 268 247 244 249 258 261 262 265 266 269 278 284 286 286 285 285 287 288 289
206 206 205 206 210 216 219 220 221 223 225 226 226 227 231 233 232 232 234 234 232 229 227 226 223 219 215 214 215 214 213 213 212 208 204 205 206 206 206 204 202 200 197 193 190 188 188 188 185 183 186 190 192 197 202 202 207 218 230 233 237 249 251 244 254 271 275 272 266 265 269 271 271 273 273 275 280 283 285 287 288 289 289 289 289
207 207 208 209 211 215 219 220 221 224 224 223 223 224 228 231 232 233 233 233 231 229 227 225 222 217 213 212 212 212 212 212 210 207 206 208 207 205 202 201 199 196 192 190 188 186 186 186 185 184 186 190 193 198 201 204 216 233 249 256 255 255 257 254 252 260 272 276 274 274 279 280 280 281 279 280 284 284 284 287 289 289 290 291 291
205 207 210 213 213 215 220 222 222 223 224 223 223 225 228 230 231 231 231 230 229 228 227 225 221 216 211 209 210 210 210 210 208 206 207 208 206 201 198 197 196 195 192 191 189 188 188 187 185 184 187 191 195 198 198 206 242 264 272 277 276 269 265 265 262 260 268 274 274 276 279 278 279 280 279 281 286 288 288 290 289 288 290 292 292
203 206 209 213 215 218 222 223 222 222 223 223 224 226 228 229 230 230 228 228 228 228 227 223 220 217 213 211 212 211 211 210 207 205 204 204 203 200 197 196 194 193 193 193 191 189 188 187 185 186 191 193 192 192 196 220 254 272 282 284 283 279 274 274 274 270 268 271 275 278 279 278 278 280 280 281 285 287 288 288 287 287 291 291 291
204 208 211 213 217 220 223 223 222 220 221 223 225 226 226 228 230 229 228 228 227 226 226 223 220 218 216 214 215 214 213 210 206 204 203 202 201 200 198 195 193 192 193 193 192 189 186 185 187 191 193 190 187 193 211 228 242 258 275 281 280 277 275 277 280 278 273 273 277 280 281 280 279 279 282 283 282 282 282 282 282 281 284 288 289
205 209 212 212 215 220 221 222 222 220 219 222 225 225 224 225 227 229 228 226 225 225 226 224 220 217 215 214 214 213 212 210 207 205 204 202 199 197 195 193 192 192 192 191 189 186 183 185 188 190 189 189 198 214 224 232 240 248 260 272 275 273 274 275 275 275 275 276 278 280 282 282 277 276 281 282 277 277 277 277 278 279 279 280 283
205 209 210 211 214 217 218 219 221 221 220 221 223 223 222 223 225 228 228 226 227 229 229 225 221 217 214 212 213 212 212 210 207 204 201 199 197 196 195 194 193 192 190 189 187 184 184 187 187 186 190 202 217 229 233 237 241 245 254 265 270 271 271 271 268 270 273 275 277 278 280 281 277 275 279 275 268 273 276 272 275 281 280 275 275
206 209 211 214 215 215 216 217 218 219 218 218 220 223 222 222 223 226 228 227 228 230 229 225 219 214 211 211 212 213 212 209 206 204 202 200 199 198 197 197 196 193 190 187 186 186 187 187 187 191 202 215 227 235 240 243 245 249 253 259 265 267 268 267 265 266 268 271 274 275 276 276 274 274 275 271 267 275 280 274 273 279 281 278 279
207 210 214 217 217 215 215 216 216 217 216 215 218 221 222 221 222 225 227 227 227 227 226 223 219 214 211 211 213 212 211 210 209 209 208 205 203 201 199 199 198 196 192 188 187 188 188 188 191 200 211 222 231 238 245 249 253 256 257 259 262 265 266 266 265 264 264 267 269 270 272 274 272 270 272 275 276 278 279 274 274 279 280 280 283
208 211 215 218 216 214 213 214 215 215 215 215 217 219 220 220 221 222 224 225 225 224 223 222 220 216 213 213 214 213 212 212 211 209 208 208 207 204 202 200 198 196 194 192 190 189 188 191 197 206 217 227 236 243 250 255 258 260 263 265 266 266 266 265 265 264 262 264 268 269 267 270 273 273 274 278 280 278 276 276 275 277 277 274 280
209 210 213 215 214 212 213 214 214 213 214 215 216 217 218 217 218 219 221 223 223 221 220 221 218 215 213 214 216 216 215 213 212 210 208 208 209 208 205 202 199 198 198 197 195 192 192 196 202 211 224 236 246 252 256 259 261 262 265 270 272 272 272 269 267 267 264 264 268 269 266 267 273 276 276 278 280 278 277 277 274 273 273 270 272
208 207 209 211 210 210 212 212 210 210 212 213 214 214 213 213 215 217 219 221 221 218 216 217 215 213 213 214 216 217 216 214 212 211 209 209 209 209 208 206 204 204 201 198 196 196 197 201 206 216 231 245 255 261 266 269 269 266 267 270 272 273 275 275 273 271 269 266 265 268 270 267 271 278 280 279 280 280 278 278 276 275 274 272 273
204 204 204 206 207 207 208 207 206 207 209 210 209 209 209 210 213 216 217 216 214 213 214 214 213 213 214 215 217 218 217 215 212 211 210 210 211 210 209 209 209 209 205 201 200 201 204 206 212 224 241 254 263 270 274 277 276 273 272 273 273 275 276 277 277 275 272 267 264 270 276 274 272 280 285 283 281 280 280 282 282 280 277 276 277
200 200 199 200 202 203 203 203 202 203 204 205 205 206 208 209 210 213 213 213 212 214 215 215 214 214 216 217 218 219 219 217 214 212 212 212 211 209 209 210 209 208 206 204 205 207 209 211 221 239 253 260 268 277 280 281 280 278 277 277 277 278 279 278 279 277 273 270 269 273 279 280 279 283 286 286 284 283 283 284 284 282 280 279 277
195 195 195 197 198 199 200 200 198 198 199 200 201 203 205 205 207 209 209 210 212 213 214 215 215 215 216 217 217 218 219 217 215 213 212 211 210 208 208 209 208 207 206 205 206 209 212 220 237 253 259 262 270 280 284 285 282 278 278 278 278 279 279 280 280 279 277 276 276 277 281 283 283 284 286 287 287 288 288 284 282 280 277 274 273
192 191 192 193 196 198 200 197 194 194 195 195 197 200 201 202 205 206 205 205 207 209 212 214 215 216 216 217 217 218 219 217 215 213 211 210 210 209 209 208 207 206 206 205 206 211 220 236 251 261 266 267 271 278 283 284 281 278 277 279 279 279 280 283 285 286 287 286 285 285 285 284 283 283 284 283 283 284 283 278 276 274 268 265 268
189 189 189 192 194 197 198 196 193 191 192 193 195 197 198 200 203 204 204 204 204 207 210 212 214 217 219 220 220 218 217 215 213 213 211 210 212 212 210 208 207 207 206 205 209 219 234 249 260 267 270 270 272 278 283 282 279 276 275 277 279 279 282 287 291 293 295 294 293 292 290 289 288 286 285 285 283 280 274 271 272 271 265 261 266
183 185 186 188 190 192 194 193 191 190 190 192 194 195 196 199 202 203 203 204 204 206 208 210 213 216 219 222 221 219 218 216 213 212 209 209 211 212 211 210 210 209 208 209 216 229 244 255 263 267 270 272 276 281 285 283 279 277 275 275 277 280 285 292 295 297 297 296 295 295 293 293 292 291 291 291 290 284 275 271 272 270 266 265 266
175 178 179 182 186 189 191 191 190 190 190 190 191 192 193 196 198 197 198 200 202 203 205 207 210 213 216 219 220 221 221 219 215 213 211 211 213 213 212 212 211 210 211 216 225 238 251 260 267 271 273 277 283 287 288 284 280 278 275 272 275 282 292 297 297 298 297 296 297 297 294 293 291 290 290 291 290 287 281 276 272 268 266 267 267
165 166 171 177 182 184 186 187 187 187 187 185 183 185 191 194 193 192 193 194 194 195 196 199 202 205 209 214 216 218 220 218 214 212 213 214 213 212 210 211 211 212 215 223 233 243 252 261 271 278 281 286 290 290 285 280 277 275 274 274 278 287 295 297 296 297 296 294 295 294 292 291 288 286 287 288 289 287 283 279 276 271 269 269 270
161 164 168 172 175 177 178 181 181 180 182 182 179 179 185 189 186 185 186 185 184 184 186 188 192 196 200 206 209 212 215 215 210 206 206 207 208 209 209 211 214 217 221 228 236 245 254 262 268 274 281 289 290 283 277 276 273 272 273 276 282 287 290 291 292 294 293 292 292 292 291 290 289 288 289 290 290 289 285 281 278 275 273 272 271
162 164 166 165 166 169 171 174 176 176 177 178 175 173 174 175 174 176 178 177 175 175 177 180 183 186 191 197 203 209 212 211 207 204 203 203 204 207 211 215 220 225 227 233 241 250 260 265 267 270 277 286 288 283 279 278 274 274 277 281 284 287 288 289 291 291 290 290 291 292 292 291 291 291 292 291 291 292 291 288 284 281 281 280 277
159 157 158 157 158 162 165 167 170 170 170 170 166 163 164 164 164 167 170 169 169 169 171 176 179 183 190 196 202 206 207 206 205 205 205 206 206 207 212 219 225 231 236 242 250 255 257 258 264 274 280 283 285 285 283 281 278 278 279 279 280 283 286 289 291 291 291 291 291 291 291 292 293 295 297 297 297 298 297 293 289 287 287 287 284
153 150 151 152 154 157 158 160 162 163 164 164 161 159 158 156 156 161 164 165 168 170 172 177 179 180 185 195 203 208 208 207 208 209 211 213 214 214 217 221 226 232 239 245 249 248 248 255 267 278 280 280 283 286 286 283 281 280 280 281 282 285 287 288 288 288 288 288 290 290 291 294 296 298 301 303 303 303 301 298 296 296 295 293 289
149 148 148 150 152 152 150 151 154 155 157 159 160 161 158 154 155 160 161 162 167 170 172 174 174 172 175 184 197 206 209 210 211 212 213 215 218 220 223 226 229 232 233 236 237 238 243 256 266 272 278 284 289 292 293 291 288 289 292 295 296 296 295 293 291 288 287 287 290 292 294 298 301 302 303 304 303 303 304 304 304 303 299 296 293
148 147 147 148 149 148 146 146 146 145 148 151 155 158 158 157 159 160 157 157 161 162 164 166 165 166 167 167 178 195 205 209 213 215 216 216 221 225 226 228 231 232 233 236 239 242 250 261 270 277 286 293 298 303 307 305 299 297 296 299 304 304 301 299 294 290 288 290 293 296 299 302 306 307 308 307 304 302 304 305 306 305 302 299 294
148 146 145 145 146 145 146 146 142 138 137 139 144 149 153 157 160 159 158 161 161 159 161 165 168 170 168 165 169 179 191 202 209 213 213 213 215 217 217 219 223 225 228 233 238 247 260 272 283 290 297 302 301 302 304 298 293 292 288 290 298 302 302 301 294 288 288 291 293 296 301 304 305 305 305 303 301 302 304 304 304 304 303 301 293
147 144 143 143 143 144 145 144 141 137 136 134 134 137 144 152 157 156 157 163 167 168 168 171 174 174 171 173 178 177 178 190 201 203 201 200 203 205 206 208 212 215 218 222 228 241 257 266 270 270 271 277 281 285 288 289 290 292 294 295 297 299 299 300 298 295 294 295 295 297 301 301 300 300 300 298 299 303 305 305 305 304 302 297 290
144 144 145 145 146 146 145 143 142 142 141 139 134 131 133 145 157 160 160 163 171 178 177 176 177 173 166 167 176 179 179 183 187 188 187 188 191 195 196 198 200 200 196 197 210 222 227 237 249 255 258 265 271 275 285 296 299 298 301 304 303 301 300 302 302 300 297 296 297 300 301 299 298 298 297 296 299 304 306 305 305 304 300 294 290
147 148 150 150 150 150 148 147 147 147 146 144 139 131 123 120 128 146 156 159 164 171 172 173 177 178 174 168 167 171 175 176 176 177 178 179 181 183 184 184 188 193 196 203 218 230 238 247 251 248 246 252 256 258 279 301 305 303 306 307 305 305 306 307 305 303 300 300 300 300 299 298 298 298 298 298 300 303 304 303 303 301 298 294 291
153 153 154 154 153 154 153 150 149 148 147 146 143 138 128 115 106 107 120 134 142 148 155 161 166 172 176 175 169 167 168 167 164 162 160 161 165 170 173 178 184 193 201 210 222 233 238 237 226 214 216 232 247 265 285 294 295 298 304 305 306 308 309 304 302 305 306 306 304 301 300 300 299 299 301 301 301 303 304 303 301 299 296 294 291
157 156 156 155 154 156 156 154 153 152 150 148 147 145 139 130 121 115 113 114 118 120 123 133 141 145 150 157 158 155 151 149 149 149 151 158 165 170 174 180 187 195 201 206 214 222 223 219 225 240 259 270 275 284 292 294 296 300 303 304 305 305 301 301 306 311 313 309 306 304 303 304 304 304 304 304 304 305 306 306 305 301 296 293 292
161 160 161 160 158 159 160 159 158 157 155 154 153 151 148 146 141 135 131 128 126 120 115 116 121 125 129 133 137 138 140 143 150 157 164 173 180 184 185 184 182 189 198 201 203 206 207 213 238 258 270 276 282 288 291 293 297 301 300 298 299 301 303 307 313 316 315 310 309 308 306 306 306 307 307 308 308 306 306 307 309 308 305 301 301
163 163 164 164 162 161 163 163 162 161 160 158 158 157 157 156 153 149 147 145 141 135 130 128 126 125 127 128 130 136 144 151 157 164 170 174 176 176 174 174 177 183 190 196 198 204 211 215 226 247 257 258 265 278 282 283 286 289 291 294 299 302 306 311 315 314 311 310 310 309 307 306 306 306 306 307 307 307 307 309 311 311 311 310 309
165 164 164 166 165 164 165 166 167 167 166 164 163 164 163 160 158 155 155 154 151 148 146 142 137 134 133 132 133 143 155 162 163 167 171 172 169 164 162 169 179 183 188 198 205 208 213 219 226 238 247 249 252 262 268 272 277 283 288 294 299 303 307 313 316 312 309 311 312 309 307 306 306 307 307 306 305 306 307 309 312 312 312 312 309
168 166 165 167 167 166 166 168 169 170 170 169 168 168 165 162 160 157 156 157 157 156 154 152 148 145 144 143 144 152 161 163 160 162 167 172 175 175 175 179 183 186 193 209 223 226 225 228 235 242 249 255 257 261 268 273 278 284 290 295 301 307 312 315 315 311 311 315 315 310 305 305 306 307 307 305 305 306 306 308 311 311 309 310 309
169 168 168 168 168 168 168 167 168 170 170 170 171 169 166 165 164 162 160 160 160 158 156 154 153 155 158 161 164 164 161 158 163 172 177 178 180 183 188 192 196 200 210 224 233 234 233 236 244 251 256 262 266 270 274 277 279 285 292 299 305 310 313 314 313 312 312 314 313 309 307 307 306 305 303 302 302 304 305 307 308 308 308 308 306
167 168 169 169 169 170 170 168 168 169 169 169 170 171 169 168 166 165 164 162 161 161 160 158 159 165 171 175 178 176 167 166 179 188 185 185 192 196 200 206 210 216 225 233 237 239 239 242 251 259 262 265 270 272 274 277 281 288 295 301 304 307 309 311 311 310 309 307 307 307 308 307 305 303 303 302 300 300 301 302 302 303 303 303 302
166 165 167 169 169 169 169 168 168 168 168 169 170 170 171 170 169 168 168 166 165 166 166 166 169 175 178 178 178 177 175 176 188 197 196 200 209 211 212 217 222 227 235 239 241 246 248 251 256 261 263 265 268 269 271 277 284 289 293 296 297 299 303 305 304 303 301 299 300 302 303 303 303 303 304 303 297 293 294 297 297 298 297 298 299
165 163 165 167 168 167 166 165 166 167 169 169 169 170 172 172 171 171 170 169 168 169 170 173 176 178 178 178 179 182 183 186 193 202 208 214 219 222 224 227 230 234 240 244 246 248 252 254 257 258 259 261 265 268 272 277 281 284 286 288 289 291 295 297 296 295 294 293 294 296 298 298 298 298 300 300 296 292 292 292 291 293 294 295 296
165 163 162 164 165 165 164 164 165 167 168 168 168 170 172 171 171 171 171 171 171 170 170 173 174 171 169 174 181 184 187 192 198 205 215 223 228 231 233 236 238 240 242 245 248 248 249 251 253 254 257 260 264 267 271 274 276 278 279 280 283 286 290 291 291 290 289 288 289 291 292 293 293 293 294 295 293 292 293 291 290 292 295 295 294
167 164 162 162 164 165 165 165 165 165 166 167 167 169 170 170 170 171 171 170 171 171 170 171 172 171 172 177 184 186 190 197 203 209 219 226 232 237 240 241 244 247 247 249 250 249 250 251 251 254 258 260 263 266 269 270 272 273 274 277 280 283 285 287 286 285 285 285 287 289 290 291 291 291 292 292 292 291 290 289 289 293 295 294 293
165 162 160 161 162 164 164 164 163 163 164 165 165 166 167 167 167 168 169 168 167 170 171 173 177 181 184 188 194 198 202 206 210 215 222 228 233 239 244 247 251 252 252 254 254 252 252 253 254 256 259 261 263 265 267 267 269 270 272 275 278 280 282 285 285 284 284 284 285 288 290 291 291 291 292 293 293 292 292 292 292 292 291 291 291
163 161 160 159 160 160 160 160 162 161 161 161 160 160 162 164 164 165 167 167 167 170 174 178 184 190 195 199 205 209 212 215 218 222 227 231 236 242 248 253 257 257 257 259 259 258 257 258 258 260 262 263 263 264 264 265 267 269 270 273 275 277 280 282 283 283 282 283 284 287 288 289 290 291 291 291 289 288 289 290 288 286 287 289 289
164 162 161 160 159 158 157 158 159 158 158 158 158 158 160 163 165 166 168 170 172 175 179 184 190 197 202 207 211 214 216 220 224 228 233 237 242 248 253 257 259 260 261 263 263 263 263 263 263 265 266 265 265 264 264 264 265 267 268 271 273 275 277 279 279 278 278 279 281 283 284 285 287 288 288 289 289 287 286 286 285 286 287 288 287
164 163 162 160 158 156 156 156 157 156 157 158 159 160 161 164 166 169 171 174 177 181 186 190 196 202 207 212 216 219 223 228 233 238 243 247 250 254 257 259 262 264 265 265 266 267 268 268 269 269 269 268 268 267 266 266 266 266 266 268 271 273 276 276 275 275 276 277 278 280 280 282 283 284 285 286 287 286 286 286 287 289 290 289 288
163 161 160 159 157 155 155 155 155 157 157 158 160 162 164 166 168 171 175 178 183 188 193 198 202 208 213 218 223 228 234 240 245 249 253 256 258 260 261 263 266 268 268 269 269 270 270 271 271 271 270 270 271 270 270 269 268 267 266 267 269 272 273 273 273 274 276 278 278 279 279 279 280 281 282 282 282 283 283 283 284 285 284 283 284
161 159 158 157 156 155 155 156 156 157 157 158 160 162 164 167 172 175 180 185 190 195 201 205 211 217 222 226 232 238 244 249 254 258 261 263 264 266 267 269 270 272 272 272 273 273 273 272 272 272 272 272 273 273 273 271 270 269 268 267 268 269 270 271 273 276 278 279 279 279 279 279 280 279 279 279 279 279 279 280 282 284 283 282 283
158 157 156 156 155 155 155 156 156 156 157 159 161 163 166 171 177 181 186 192 197 203 210 216 222 229 234 238 243 248 252 257 261 264 267 268 270 271 272 273 274 274 275 275 275 275 275 274 273 273 273 273 273 274 274 273 271 270 269 268 267 267 268 270 273 276 279 280 280 279 277 277 277 277 276 276 276 275 274 275 278 282 285 287 288
153 153 153 152 151 151 152 152 152 154 157 160 163 167 171 176 182 188 195 202 207 215 223 230 235 242 246 251 254 258 261 265 268 270 272 273 275 276 277 277 277 277 277 277 277 277 276 276 275 275 275 274 274 274 274 274 273 271 270 268 267 267 268 270 274 277 279 279 278 277 276 275 274 274 273 273 272 273 274 275 276 279 282 286 287